Regional Weather Roundup
Issued by NWS Midland/Odessa, TX

Home | Current Version | Previous Version | Text Only | Print | Product List | Glossary On
Versions: 1 2 3 4 5 6 7 8 9 10 11 12 13 14 15 16 17 18 19 20 21 22 23 24 25 26 27 28 29 30 31 32 33 34 35 36 37 38 39 40 41 42 43 44 45 46 47 48 49 50
000
ASUS44 KMAF 272001
RWRMAF
MIDLAND AREA WEATHER ROUNDUP
NATIONAL WEATHER SERVICE MIDLAND TX
300 PM CDT TUE JUN 27 2017

...IN SOUTHWEST TEXAS AND SOUTHEAST NEW MEXICO...

CITY           SKY/WX    TMP DP  RH WIND       PRES   REMARKS
ALPINE         MOSUNNY   90  49  25 E12       30.15F
ANDREWS        CLOUDY    87  61  40 E6G17     30.05F
ARTESIA        SUNNY     91  52  25 SE18G25   30.02F
BIG SPRING     SUNNY     86  64  47 SE6       30.04F
CARLSBAD       SUNNY     91  58  32 SE14G20   30.01F
DRYDEN           N/A     89  63  41 E9        29.97F
FORT STOCKTON  MOSUNNY   90  57  32 E6        30.01F
GUAD PASS      NOT AVBL
HOBBS          MOSUNNY   88  48  25 SE10G16   30.06F
MARFA          CLOUDY    85  53  33 SE10      30.13F
MIDLAND AIRPK  MOSUNNY   87  62  41 E6        30.04F
MIDLAND INTL   MOSUNNY   86  65  49 S9        30.04F
ODESSA         SUNNY     86  62  44 E12       30.05F
PECOS          MOSUNNY   92  57  30 E7        29.99F
PRESIDIO       CLOUDY    89  53  29 NE8       30.00F
SEMINOLE       SUNNY     88  51  27 SE7       30.06F
SNYDER         SUNNY     86  64  46 S9        30.03F
WINK           SUNNY     91  54  28 SE3G17    30.00F
$$
...OTHER STATIONS IN TEXAS...

CITY           SKY/WX    TMP DP  RH WIND       PRES   REMARKS
ABILENE        MOSUNNY   87  63  44 SE13G18   30.01F
AMARILLO       NOT AVBL
AUSTIN         PTSUNNY   90  70  51 NE9G16    29.95F
BROWNSVILLE    TSTM      76  73  91 NW17G25   29.92R
CORPUS CHRISTI LGT RAIN  85  76  74 E12       29.92F
DALLAS FTW     CLOUDY    89  70  53 SE6       29.95F
DEL RIO        MOSUNNY   90  67  46 SE9       29.93F
EL PASO        MOSUNNY   91  52  26 SW6       30.05F
HOUSTON INT    LGT RAIN  77  73  87 SE9       29.98F
LUBBOCK        MOSUNNY   87  58  37 SW9       30.04F
SAN ANGELO     MOSUNNY   90  65  43 VRB7      30.01F
SAN ANTONIO    CLOUDY    90  68  48 E12       29.96F
WACO           PTSUNNY   88  70  55 SE8       29.97F
WICHITA FALLS  NOT AVBL
$$
...OTHER LOCATIONS IN NEW MEXICO...

CITY           SKY/WX    TMP DP  RH WIND       PRES   REMARKS
ALAMOGORDO     SUNNY     90  50  25 SE7       30.07F
ALBUQUERQUE    MOSUNNY   90  39  16 S7        30.08F
CANNON AFB     SUNNY     89  50  26 S17       30.06F
CLOVIS         NOT AVBL
HOLLOMAN AFB   SUNNY     95  51  22 S9        30.06F
ROSWELL        SUNNY     92  52  25 SE18G24   30.02F
RUIDOSO        SUNNY     77  46  33 SE3       30.26F
SANTA FE       SUNNY     86  41  20 SW12G22   30.14F
TRUTH OR CONSE SUNNY     91  51  25 S14G20    30.07F
TUCUMCARI      SUNNY     95  47  19 SW20G33   29.95F
$$




USA.gov is the U.S. government's official web portal to all federal, state and local government web resources and services.